Terminal Aerodrome Forecast
Issued by NWS Quad Cities IA IL

Home | Current Version | Previous Version | Text Only | Print | Product List | Glossary On
Versions: 1 2 3 4 5 6 7 8 9 10 11 12 13 14 15 16 17 18 19 20 21
000
FTUS43 KDVN 171200 AAA
TAFDBQ
TAF AMD
KDBQ 171236Z 1713/1812 27015G22KT P6SM SCT015 BKN025
      TEMPO 1713/1715 BKN015
     FM171800 30013KT P6SM SCT025 BKN150
     FM180100 VRB04KT P6SM SCT250=

USA.gov is the U.S. government's official web portal to all federal, state and local government web resources and services.